CDT,Max TemperatureF,Mean TemperatureF,Min TemperatureF,Max Dew PointF,MeanDew PointF,Min DewpointF,Max Humidity, Mean Humidity, Min Humidity, Max Sea Level PressureIn, Mean Sea Level PressureIn, Min Sea Level PressureIn, Max VisibilityMiles, Mean VisibilityMiles, Min VisibilityMiles, Max Wind SpeedMPH, Mean Wind SpeedMPH, Max Gust SpeedMPH,PrecipitationIn, CloudCover, Events, WindDirDegrees
2012-3-1,51,43,35,32,30,28,78,65,45,29.89,29.78,29.64,10,10,10,21,13,31,0.00,4,,262
2012-3-2,43,38,32,34,31,25,88,80,68,29.74,29.57,29.40,10,7,0,23,14,33,0.00,4,Rain-Snow,327
2012-3-3,35,32,28,25,23,21,77,66,60,29.89,29.81,29.72,10,10,10,29,18,39,0.00,8,,263
2012-3-4,34,26,17,27,21,14,86,73,56,30.09,29.92,29.86,10,8,0,15,7,16,0.00,4,Snow,274
2012-3-5,39,25,11,27,19,6,85,72,52,30.37,30.25,30.10,10,10,5,13,7,18,0.00,0,,194
2012-3-6,73,55,37,37,29,22,65,41,15,30.10,29.93,29.81,10,10,10,31,14,41,0.00,0,,158
2012-3-7,71,58,44,50,43,34,82,50,39,29.93,29.86,29.80,10,10,4,30,16,40,0.00,7,Rain,168
2012-3-8,47,40,34,38,26,18,83,59,32,30.32,30.18,29.92,10,10,7,22,16,31,0.00,2,Rain-Thunderstorm,273
2012-3-9,46,37,28,25,12,3,68,38,17,30.56,30.48,30.32,10,10,10,15,9,21,0.00,0,,300
2012-3-10,64,48,31,27,22,16,62,40,19,30.44,30.31,30.20,10,10,10,22,11,31,0.00,0,,166
2012-3-11,68,53,38,49,33,23,84,49,21,30.22,30.10,29.89,10,10,4,18,9,25,0.00,3,Rain,147
2012-3-12,64,56,48,54,50,44,88,76,59,29.95,29.84,29.79,10,9,4,21,12,31,0.00,6,Rain,200
2012-3-13,76,56,37,52,43,35,93,62,29,30.12,30.03,29.95,10,7,0,8,4,,0.00,1,Fog,132
2012-3-14,80,68,56,59,54,44,79,62,45,29.99,29.95,29.89,10,10,10,23,10,28,0.23,1,,168
2012-3-15,82,72,62,60,56,52,82,62,36,30.03,29.99,29.95,10,10,10,16,9,21,0.00,1,,210
2012-3-16,81,69,57,58,53,49,76,58,42,30.05,30.01,29.96,10,10,10,18,8,23,0.00,1,,156
2012-3-17,82,71,60,59,55,48,85,61,39,30.04,29.99,29.92,10,10,5,20,8,28,0.00,2,Thunderstorm,141
2012-3-18,82,71,60,59,56,51,83,63,38,30.03,29.96,29.90,10,10,10,20,9,26,0.00,3,Rain-Thunderstorm,149
2012-3-19,82,73,64,64,58,50,88,63,41,29.96,29.88,29.79,10,10,7,20,9,29,0.00,3,Rain-Thunderstorm,135
2012-3-20,83,70,58,56,48,40,75,44,22,29.97,29.91,29.85,10,10,10,28,11,34,0.00,1,,135
2012-3-21,83,72,60,56,50,41,73,47,23,30.03,29.99,29.96,10,10,10,18,5,25,0.00,2,,124
2012-3-22,74,68,62,61,57,50,87,69,43,30.04,29.99,29.95,10,9,1,13,7,20,0.28,7,Rain,124
2012-3-23,70,60,51,58,52,45,92,76,40,29.96,29.88,29.78,10,7,0,10,3,,0.16,5,Fog-Rain-Thunderstorm,131
2012-3-24,72,59,46,58,52,44,94,79,51,29.97,29.87,29.79,10,7,0,12,4,,0.00,5,Fog,318
2012-3-25,77,63,50,58,51,47,92,69,36,30.09,30.04,29.97,10,7,0,9,3,,0.00,4,Fog,306
2012-3-26,60,52,45,52,34,27,80,53,33,30.30,30.20,30.07,10,10,7,20,13,29,0.00,4,,66
2012-3-27,79,64,48,56,43,31,62,48,35,30.13,29.96,29.82,10,10,10,29,14,34,0.00,2,Thunderstorm,164
2012-3-28,74,62,50,55,37,25,70,41,18,30.02,29.96,29.85,10,10,10,22,10,34,0.00,0,,288
2012-3-29,60,54,48,41,38,36,66,55,43,30.08,29.99,29.84,10,10,10,15,8,22,0.00,3,,83
2012-3-30,66,56,47,49,45,36,81,66,52,29.92,29.78,29.69,10,10,10,18,9,24,0.00,4,Rain-Thunderstorm,330
2012-3-31,68,57,46,47,41,39,77,60,36,29.95,29.87,29.73,10,8,4,15,8,17,0.00,6,Rain-Thunderstorm,88